GOMX-1

Last updated on Thu Nov 21 2024 00:03:02 GMT+0000 (Coordinated Universal Time)

1 39430U 13066Q 24325.60079812 .00003408 00000+0 54905-3 0 9994 2 39430 97.7057 190.4777 0137393 114.4441 247.1167 14.65938822585763
UTC large
Height (km)
Speed (km/s)
/
Latitude / Longitude
Inclination (degrees)
Orbital Period (minutes)
Azimuth
Elevation
Range (km)
Doppler Factor

Next 0 passes for location: London (51.5072 / 0.1276)

Sorry there are no passes over London.